Terug naar catalogus

STARLINK-5372

ActiefCommunicatieVLEO
NORAD 54838·PAYLOAD·🇺🇸 United States

Gelanceerd Dec 28, 2022 vanaf Cape Canaveral Space Force Station

Loading…

Volgende Passages (komende 24 uur)

TLE

VersSource: CelesTrak SupGP

Epoch: Sep 14, 2026, 21:23 UTC

1 54838C 22177U   26257.89145833 -.00023133  00000+0 -83819-3 0  2572
2 54838  43.0020 144.3514 0001055 250.7328 226.2219 15.27578539    16

Volg STARLINK-5372 in realtime met AllMySat

Download on the App Store